Weather past 2 weeks in Mamoutzou, Mayotte

Now
75 °F

Passing clouds.


Feels Like: 74 °F
Forecast: 79 / 83 °F
Wind: 2 mph from Northeast

Location: Dzaoudzi / Pamanzi Mayotte

Current Time: Mar 5, 2015 at 6:17:03 AM

Latest Report: Mar 5, 2015 at 5:00 AM


Visibility: N/A

Pressure: 29.80 "Hg

Humidity: 94%

Dew point: 73 °F

Location of MamoutzouLocation

Historic Weather in Mamoutzou — Graph

°F

Mamoutzou temperature yesterday

Maximum temperature yesterday: 82 °F (at 1:00 AM)
Minimum temperature yesterday: 77 °F (at 4:30 PM)
Average temperature yesterday: 81 °F

Past Weeks' High & Low Weather Summary

 TemperatureHumidityPressure
High90 °F (Feb 20, 10:30 AM)100% (Mar 2, 4:00 PM)29.95 "Hg (Mar 2, 4:00 PM)
Low73 °F (Mar 2, 3:00 PM)62% (Mar 1, 1:30 PM)29.68 "Hg (Mar 1, 2:30 PM)
Average81 °F83%29.81 "Hg
* Reported Feb 18 5:00 AM — Mar 5 5:00 AM, Mamoutzou, Weather by CustomWeather, © 2015

Note: Actual official high and low records may vary slightly from our data, if they occured in-between our weather recording intervals... More about our weather records

Advertising

Mamoutzou weather history for previous 24 hours

 ConditionsComfort  
Time TempWeatherWind HumidityBarometerVisibility
5:00 AM
Thu, Mar 5
75 °FMild.1 mph94%29.80 "HgN/A
4:30 AM77 °FWarm.2 mph89%29.77 "HgN/A
4:00 AM77 °FWarm.1 mph89%29.77 "HgN/A
3:30 AM77 °FWarm.No wind89%29.77 "HgN/A
3:00 AM79 °FWarm.3 mph84%29.77 "HgN/A
2:30 AM79 °FWarm.8 mph84%29.77 "HgN/A
2:00 AM79 °FWarm.10 mph89%29.77 "HgN/A
1:30 AM79 °FWarm.7 mph84%29.80 "HgN/A
12:30 AM81 °FLight rain. Passing clouds.16 mph84%29.80 "HgN/A
12:00 AM82 °FPartly cloudy.10 mph79%29.80 "HgN/A
11:30 PM
Wed, Mar 4
82 °FOvercast.12 mph79%29.80 "HgN/A
11:00 PM81 °FPassing clouds.6 mph84%29.83 "HgN/A
10:30 PM79 °FPartly cloudy.2 mph84%29.83 "HgN/A
10:00 PM79 °FOvercast.No wind84%29.83 "HgN/A
9:30 PM79 °FWarm.5 mph79%29.83 "HgN/A
9:00 PM79 °FWarm.5 mph79%29.83 "HgN/A
8:30 PM79 °FWarm.6 mph79%29.80 "HgN/A
8:00 PM77 °FWarm.3 mph83%29.80 "HgN/A
7:30 PM79 °FWarm.6 mph84%29.80 "HgN/A
7:00 PM79 °FWarm.9 mph79%29.80 "HgN/A
6:30 PM79 °FWarm.7 mph84%29.77 "HgN/A
6:00 PM77 °FPartly sunny.6 mph89%29.77 "HgN/A
5:37 PM79 °FPartly sunny.12 mph84%29.77 "HgN/A
5:00 PM79 °FSprinkles. Partly sunny.17 mph89%29.77 "HgN/A
4:30 PM77 °FScattered showers. Partly sunny.20 mph89%29.77 "Hg5 mi
4:00 PM82 °FScattered showers. Broken clouds.14 mph74%29.77 "HgN/A
3:00 PM82 °FBroken clouds.9 mph79%29.77 "HgN/A
2:30 PM82 °FBroken clouds.12 mph79%29.77 "HgN/A
2:00 PM82 °FBroken clouds.14 mph79%29.77 "HgN/A
1:30 PM81 °FBroken clouds.12 mph84%29.77 "HgN/A
1:00 PM82 °FBroken clouds.17 mph79%29.80 "HgN/A
12:36 PM81 °FBroken clouds.13 mph79%29.80 "HgN/A
12:00 PM79 °FPartly sunny.12 mph89%29.80 "HgN/A
11:34 AM79 °FPartly sunny.13 mph84%29.80 "HgN/A
11:00 AM79 °FPartly sunny.20 mph89%29.83 "HgN/A
10:30 AM79 °FSprinkles. Partly sunny.8 mph89%29.83 "HgN/A
10:00 AM79 °FSprinkles. Partly sunny.16 mph89%29.83 "HgN/A
9:30 AM79 °FSprinkles. Broken clouds.22 mph89%29.83 "HgN/A
9:00 AM82 °FBroken clouds.17 mph74%29.83 "HgN/A
8:30 AM82 °FScattered showers. Broken clouds.22 mph79%29.83 "Hg5 mi
8:00 AM82 °FBroken clouds.12 mph84%29.83 "HgN/A
7:30 AM82 °FPartly sunny.13 mph79%29.83 "HgN/A
7:00 AM82 °FPartly sunny.15 mph79%29.80 "HgN/A
6:34 AM82 °FBroken clouds.17 mph79%29.80 "HgN/A
6:00 AM82 °FPassing clouds.10 mph79%29.77 "HgN/A
Weather by CustomWeather, © 2015

See weather overviewHow to use our weather pages